Regional Weather Roundup
Issued by NWS Memphis, TN

Home | Current Version | Previous Version | Text Only | Print | Product List | Glossary On
Versions: 1 2 3 4 5 6 7 8 9 10 11 12 13 14 15 16 17 18 19 20 21 22 23 24 25 26 27 28 29 30 31 32 33 34 35 36 37 38 39 40 41 42 43 44 45 46 47 48 49 50
000
ASUS44 KMEG 251600
RWRMEG
MEMPHIS CWA HOURLY WEATHER ROUNDUP
NATIONAL WEATHER SERVICE MEMPHIS TN
1100 AM CDT MON SEP 25 2017

...WEST TENNESSEE...

CITY           SKY/WX    TMP DP  RH WIND       PRES   REMARKS
MEMPHIS INTL   MOSUNNY   84  66  54 CALM      30.02S
NWS MEMPHIS      N/A     86 N/A N/A MISG        N/A
JACKSON        SUNNY     85  68  56 VRB3      30.03F
DYERSBURG      SUNNY     83  70  64 CALM      30.04S


...EASTERN ARKANSAS...

CITY           SKY/WX    TMP DP  RH WIND       PRES   REMARKS
JONESBORO      SUNNY     84  69  60 VRB5      30.01F
WEST MEMPHIS   SUNNY     85  69  58 CALM      30.00S
BATESVILLE     SUNNY     82  68  62 CALM      30.01F
NEWPORT        SUNNY     82  69  64 CALM      30.01F
WALNUT RIDGE   SUNNY     82  70  65 CALM      30.01F
BLYTHEVILLE    SUNNY     85  69  58 SE5       30.02S
NW BLYTHEVILLE SUNNY     86  68  54 CALM      30.02S
SEARCY         SUNNY     84  70  62 SE3       30.01F
STUTTGART      SUNNY     86  66  51 E3        30.00S
PINE BLUFF     MOSUNNY   83  66  56 VRB3      29.99F
MONTICELLO     SUNNY     83  67  58 SE6       29.99S


...NORTH MISSISSIPPI...

CITY           SKY/WX    TMP DP  RH WIND       PRES   REMARKS
TUPELO         SUNNY     84  64  50 E6        30.02S
OLIVE BRANCH   MOSUNNY  N/A N/A N/A CALM      30.01S
TUNICA           N/A    N/A N/A N/A CALM      30.01F
CLARKSDALE       N/A     84  70  61 CALM      30.01S
GREENWOOD      CLOUDY    82  70  66 CALM      30.00S
COLUMBUS       SUNNY     84  71  65 SE6       30.00F
STARKVILLE     SUNNY     82  68  61 E8        30.02S
GOLDEN TRIANGL MOSUNNY   84  68  58 SE7       30.01S


...SOUTHEAST MISSOURI...

CITY           SKY/WX    TMP DP  RH WIND       PRES   REMARKS
MALDEN         SUNNY     84  64  51 SW5       30.03F
WEST PLAINS    SUNNY     81  64  56 SE7       30.05F
POPLAR BLUFF   SUNNY     82  68  62 SE3       30.02S
CAPE GIRARDEAU SUNNY     84  67  56 VRB3      30.02F


...NORTHWEST ALABAMA...

CITY           SKY/WX    TMP DP  RH WIND       PRES   REMARKS
MUSCLE SHOALS  SUNNY     84  65  52 S6        30.05F


...MIDDLE TENNESSEE...

CITY           SKY/WX    TMP DP  RH WIND       PRES   REMARKS
NASHVILLE      MOSUNNY   85  66  53 N6        30.06S
CLARKSVILLE    SUNNY     84  65  52 VRB3      30.05S


...WESTERN KENTUCKY...

CITY           SKY/WX    TMP DP  RH WIND       PRES   REMARKS
PADUCAH        SUNNY     86  66  51 VRB3      30.03S
FORT CAMPBELL  SUNNY     84  66  55 CALM      30.04F


...CENTRAL ARKANSAS...

CITY           SKY/WX    TMP DP  RH WIND       PRES   REMARKS
LITTLE ROCK    SUNNY     82  70  66 VRB6      29.99S


SKY/WX REPORTED AS FAIR MEANS FEW OR NO CLOUDS BELOW
12 THOUSAND FEET.




USA.gov is the U.S. government's official web portal to all federal, state and local government web resources and services.